Location: Mentone
(34.5413°N, 85.5351°W)
Time: 01:24:17
(UTC-05:00)

Tiros 1 despin weight - Visible Passes

Search period start: 02 October 2014 00:00
Search period end: 12 October 2014 00:00
Orbit: 601 x 652 km, 48.2° (Epoch: 01 October)

Date Brightness Start Highest point End Pass type
(mag) Time Alt. Az. Time Alt. Az. Time Alt. Az.
02 Oct ? 19:55:13 10° NNW 19:57:34 14° N 19:59:12 12° NNE visible
03 Oct ? 20:14:41 10° NNW 20:17:28 16° NNE 20:17:33 16° NNE visible
04 Oct ? 18:51:55 10° NNW 18:54:13 14° N 18:56:31 10° NNE visible
04 Oct ? 20:33:48 10° NNW 20:35:55 19° N 20:35:55 19° N visible
05 Oct ? 19:11:35 10° NNW 19:14:08 15° N 19:16:40 10° NE visible
05 Oct ? 20:52:50 10° NW 20:54:18 19° NNW 20:54:18 19° NNW visible
06 Oct ? 19:30:48 10° NNW 19:33:58 19° NNE 19:35:29 16° NE visible
06 Oct ? 21:11:56 10° NW 21:12:43 15° NW 21:12:43 15° NW visible
07 Oct ? 19:49:50 10° NW 19:53:40 27° NNE 19:53:57 27° NNE visible
08 Oct ? 20:08:53 10° NW 20:12:29 43° N 20:12:29 43° N visible
09 Oct ? 18:46:49 10° NNW 18:50:22 23° NNE 18:53:50 10° ENE visible
09 Oct ? 20:28:04 10° NW 20:31:05 43° NW 20:31:05 43° NW visible
10 Oct ? 19:05:50 10° NW 19:09:58 36° NNE 19:12:32 19° E visible
10 Oct ? 20:47:33 10° WNW 20:49:47 26° W 20:49:47 26° W visible
11 Oct ? 19:24:56 10° NW 19:29:22 70° NE 19:31:22 32° ESE visible
11 Oct ? 21:07:47 10° W 21:08:37 13° W 21:08:37 13° W visible
